Location: Unspecified
(19.4326°N, 99.1332°W)
Time: 06:49:27
(UTC-05:00)

ISS - Visible Passes

Search period start: 25 March 2017 00:00
Search period end: 04 April 2017 00:00
Orbit: 399 x 409 km, 51.6° (Epoch: 25 March)

Date Brightness Start Highest point End Pass type
(mag) Time Alt. Az. Time Alt. Az. Time Alt. Az.
25 Mar -1.9 06:08:04 18° N 06:09:51 29° NE 06:12:46 10° ESE visible
25 Mar -2.1 21:01:42 10° WSW 21:04:39 33° NW 21:07:13 12° NNE visible
26 Mar -2.7 06:52:01 16° W 06:53:48 25° SW 06:56:32 10° S visible
26 Mar -3.9 20:09:04 10° SW 20:12:15 87° SE 20:15:29 10° NE visible
27 Mar -1.9 06:03:22 23° SSE 06:03:22 23° SSE 06:04:44 10° SSE visible
27 Mar -0.6 20:55:22 10° WNW 20:56:24 11° NW 20:57:27 10° NNW visible
